Location: Shenandoah County Park
(38.9356°N, 78.4524°W)
Time: 05:57:25
(UTC-05:00)

Vanguard 3 - All Passes

Search period start: 28 January 2023 00:00
Search period end: 07 February 2023 00:00
Orbit: 509 x 3252 km, 33.4° (Epoch: 28 January)

Date Brightness Start Highest point End Pass type
(mag) Time Alt. Az. Time Alt. Az. Time Alt. Az.
28 Jan - 00:54:50 10° W 01:13:09 63° SSW 01:31:16 10° SE visible
28 Jan - 03:11:26 10° W 03:28:06 36° SW 03:42:06 10° SSE visible
28 Jan - 17:11:15 10° SE 17:13:55 11° SE 17:16:54 10° ESE daylight
28 Jan - 19:14:43 10° SSW 19:24:36 42° SE 19:40:08 10° E visible
28 Jan - 21:25:06 10° WSW 21:38:32 69° SSE 21:58:06 10° E visible
28 Jan - 23:38:00 10° W 23:54:51 70° S 00:14:24 10° ESE visible
29 Jan - 01:52:56 10° W 02:10:54 49° SSW 02:27:31 10° SE visible
29 Jan - 04:12:17 10° W 04:24:28 21° SW 04:35:01 10° S visible
29 Jan - 18:01:42 10° S 18:09:12 26° SE 18:20:14 10° E visible
29 Jan - 20:10:11 10° SW 20:21:21 59° SSE 20:39:13 10° E visible
29 Jan - 22:21:52 10° W 22:36:36 73° S 22:56:35 10° E visible
30 Jan - 00:35:33 10° W 00:53:02 60° SSW 01:11:38 10° SE visible
30 Jan - 02:51:54 10° W 03:07:59 33° SW 03:22:23 10° SSE visible
30 Jan - 16:51:39 10° SE 16:54:35 12° SE 16:57:58 10° ESE daylight
30 Jan - 18:56:02 10° SW 19:05:08 44° SSE 19:19:58 10° E visible
30 Jan - 21:06:23 10° WSW 21:18:51 70° S 21:38:00 10° E visible
30 Jan - 23:18:57 10° W 23:34:50 69° SSW 23:54:34 10° ESE visible
31 Jan - 01:33:33 10° W 01:50:45 46° SSW 02:07:47 10° SE visible
31 Jan - 03:53:10 10° W 04:04:27 19° SW 04:14:42 10° SSW visible
31 Jan - 17:42:56 10° S 17:49:51 27° SE 18:00:19 10° E visible
31 Jan - 19:51:33 10° WSW 20:01:51 60° SSE 20:18:59 10° E visible
31 Jan - 22:03:02 10° W 22:16:47 72° S 22:36:33 10° ESE visible
01 Feb - 00:16:21 10° W 00:32:54 57° SSW 00:51:46 10° SE visible
01 Feb - 02:32:32 10° W 02:47:50 31° SW 03:02:23 10° SSE visible
01 Feb - 16:32:22 10° SSE 16:35:20 12° SE 16:38:50 10° ESE daylight
01 Feb - 18:37:27 10° SW 18:45:46 45° SSE 18:59:47 10° E visible
01 Feb - 20:47:44 10° WSW 20:59:14 70° S 21:17:48 10° E visible
01 Feb - 23:00:01 10° W 23:14:52 66° SSW 23:34:33 10° ESE visible
02 Feb - 01:14:17 10° W 01:30:33 43° SSW 01:47:47 10° SSE visible
02 Feb - 03:34:26 10° W 03:44:25 16° SW 03:53:54 10° SSW visible
02 Feb - 17:24:15 10° SSW 17:30:37 28° SE 17:40:24 10° E daylight
02 Feb - 19:33:01 10° WSW 19:42:27 61° SSE 19:58:43 10° E visible
02 Feb - 21:44:19 10° W 21:57:03 71° S 22:16:22 10° ESE visible
02 Feb - 23:57:17 10° W 00:12:48 54° SSW 00:31:41 10° SE visible
03 Feb - 02:13:23 10° W 02:27:41 28° SW 02:42:03 10° S visible
03 Feb - 16:13:16 10° SSE 16:16:09 12° SE 16:19:37 10° ESE daylight
03 Feb - 18:18:55 10° SW 18:26:32 46° SSE 18:39:37 10° E visible
03 Feb - 20:29:10 10° WSW 20:39:45 70° S 20:57:31 10° E visible
03 Feb - 22:41:09 10° W 22:54:58 63° SSW 23:14:22 10° ESE visible
04 Feb - 00:55:09 10° W 01:10:24 39° SSW 01:27:31 10° SSE visible
04 Feb - 03:16:15 10° WSW 03:24:23 14° SW 03:32:23 10° SSW visible
04 Feb - 17:05:39 10° SSW 17:11:28 28° SE 17:20:31 10° E daylight
04 Feb - 19:14:32 10° WSW 19:23:10 62° SSE 19:38:26 10° E visible
04 Feb - 21:25:39 10° W 21:37:23 68° S 21:56:03 10° ESE visible
04 Feb - 23:38:19 10° W 23:52:47 50° SSW 00:11:22 10° SE visible
05 Feb - 01:54:28 10° W 02:07:34 25° SW 02:21:22 10° S visible
05 Feb - 15:54:18 10° SSE 15:57:04 13° SE 16:00:24 10° ESE daylight
05 Feb - 18:00:27 10° SW 18:07:24 47° SSE 18:19:29 10° E visible
05 Feb - 20:10:39 10° WSW 20:20:21 69° S 20:37:10 10° E visible
05 Feb - 22:22:22 10° W 22:35:08 59° SSW 22:53:59 10° SE visible
06 Feb - 00:36:12 10° W 00:50:18 35° SSW 01:06:58 10° SSE visible
06 Feb - 02:59:16 10° WSW 03:04:24 12° SW 03:09:34 10° SSW visible
06 Feb - 16:47:05 10° SSW 16:52:24 29° SE 17:00:42 10° E daylight
06 Feb - 18:56:07 10° WSW 19:03:59 62° SSE 19:18:10 10° E visible
06 Feb - 21:07:02 10° W 21:17:49 66° S 21:35:38 10° ESE visible
06 Feb - 23:19:29 10° W 23:32:49 46° SSW 23:50:50 10° SE visible
